Starlink 3090

operational
NORAD ID: 49132 Int'l Des: 2021-082 Owner: SPXS Country: US Constellation: starlink
LEOCIRCULAR

About Starlink 3090

Description loading...

Live Position

Loading 3D Globe...

Upcoming Passes

Altitude History

Altitude vs Time

uPlot chart will show altitude changes over time

Two-Line Element Set

1 49132U 21082C 25304.59182844 .00001162 00000-0 10515-3 0 9992
2 49132 69.9987 259.8263 0002976 271.7646 88.3173 14.98339338226642
Epoch: Oct 31, 2025 • Age: 6 hours

Current Status

Altitude 574.6 km
Velocity 7.58 km/s
Sub-Earth Point 18.68°N, 84.74°W
Launch Date Sep 14, 2021
Age 4.1 years
Type internet

Technical Details

Classification Payload
Mass 297.00 kg
Dry Mass 275.00 kg
Total Mass 297.00 kg
Length 0.20 m
Diameter 2.80 m
Span 9.00 m
Shape Box + pan
Manufacturer SPXS
Bus Type Starlink
Phase Status In Orbit
Owner/State SPXS/US

Large Constellations

Loading constellations...